Location: Costa Valle Imagna
(45.8000°N, 9.5000°E)
Time: 00:54:48
(UTC+00:00)

Cosmos 1656 Rocket - Pass Details

Date: 17 February 2020
Orbit: 794 x 848 km, 71.1° (Epoch: 04 April)

Event Time Altitude Azimuth Distance (km) Brightness Sun altitude
Rises 05:16:01 0° 334° (NNW) 3,404 6.5 -12.2°
Reaches altitude 10° 05:18:28 10° 334° (NNW) 2,471 5.8 -11.7°
Maximum altitude 05:24:10 87° 64° (ENE) 854 3.8 -10.7°
Drops below altitude 10° 05:29:51 10° 155° (SSE) 2,466 6.6 -9.8°
Sets 05:32:18 0° 155° (SSE) 3,396 7.3 -9.3°
